Wind_Speed
42 38 34 32 30 27 24 20 17 16 18 24 28 27 26 25 24 23 23 23 24 24 23 23 23 22 21 22 22 22 21 21 20 19 17 16 17 17 18 20 22 21 20 19 20 20 19 19 18 17 18 20 21 22 22 23 24 25 25 26 26 26 26 26 27 27 27 27 28 28 27 26 26 25 24 24 25 24 22 20 19 21 28 31 30
43 40 37 34 32 29 26 22 19 17 19 24 29 28 27 26 24 23 23 23 24 24 23 22 22 22 22 22 22 22 21 20 20 19 17 16 17 18 19 20 21 21 20 20 20 21 20 19 19 19 20 21 22 23 24 24 25 25 26 26 26 27 27 26 27 27 27 27 28 28 27 27 26 25 24 25 26 25 24 24 26 30 33 32 28
43 42 39 37 33 31 28 24 21 19 19 25 29 29 27 26 25 23 23 23 24 24 23 23 22 22 22 22 22 21 21 21 20 20 18 17 17 18 19 19 20 20 20 21 21 21 20 19 20 20 21 22 23 24 25 25 26 26 26 27 27 27 26 26 26 27 27 27 27 28 27 26 25 24 24 25 26 27 28 30 33 35 31 26 25
43 43 41 39 35 32 31 27 23 20 20 25 30 29 27 27 25 23 23 24 24 24 24 23 23 23 23 23 21 21 21 21 21 21 19 18 18 19 19 19 19 20 20 20 21 20 20 20 21 22 22 23 24 25 25 26 26 27 27 27 27 26 26 25 24 24 24 25 25 26 25 24 24 24 25 26 27 29 30 32 35 33 26 22 24
45 44 43 41 37 34 33 30 25 22 21 25 30 30 28 27 26 24 23 23 24 24 24 23 23 24 23 23 22 20 21 21 21 21 20 19 20 20 20 19 19 19 19 20 20 20 21 21 22 23 23 24 24 25 25 26 26 27 27 27 27 27 26 25 25 25 25 24 23 23 23 23 24 25 25 25 26 28 30 32 31 27 24 23 24
46 45 45 44 40 36 35 32 28 23 22 25 30 31 29 28 26 24 23 23 23 23 23 24 24 24 24 23 22 21 21 21 21 21 20 20 21 22 22 21 20 20 20 20 21 20 21 21 22 23 23 23 24 24 24 25 26 27 28 28 28 28 28 28 28 29 27 23 21 21 22 23 24 24 23 24 26 28 30 30 27 24 24 24 24
48 47 46 45 42 38 36 34 30 26 24 26 30 31 30 29 27 25 23 23 23 23 23 24 24 24 24 23 22 21 21 21 21 21 21 20 22 23 24 23 22 22 22 21 20 20 20 21 21 22 22 22 22 22 23 24 25 27 28 28 28 30 30 28 26 25 22 20 20 20 21 22 22 22 22 24 26 28 28 26 24 23 23 23 24
49 48 47 46 44 40 37 36 33 29 26 27 30 31 30 30 28 26 24 23 23 23 23 24 24 24 24 24 23 22 21 21 21 21 21 21 22 24 25 24 23 22 22 21 20 20 20 20 21 21 21 21 21 21 23 24 25 26 28 28 27 27 26 23 20 20 20 19 20 19 19 20 21 22 23 25 26 26 24 22 21 22 22 22 22
48 47 46 45 44 41 38 37 35 31 28 28 30 31 31 31 29 27 25 24 23 24 24 25 25 25 25 24 23 22 21 21 21 21 21 22 23 25 25 24 23 22 21 21 20 20 21 21 21 21 21 21 21 22 23 24 25 26 26 26 25 23 21 19 19 19 19 19 18 18 19 20 21 22 23 24 24 22 20 20 20 20 21 21 20
46 44 43 43 43 42 40 39 37 33 29 29 31 32 32 31 30 28 27 25 24 25 25 25 26 26 25 24 23 21 21 21 21 21 22 22 24 25 25 24 23 22 22 21 21 21 22 21 21 21 22 22 23 24 25 25 25 25 25 24 23 21 19 18 19 19 18 17 17 17 19 20 21 22 22 22 21 19 18 19 19 19 19 19 19
42 40 39 40 42 42 41 40 39 35 31 30 32 33 33 32 31 30 28 26 25 26 26 26 26 25 24 23 22 21 21 21 22 22 22 22 24 25 26 25 24 23 23 22 22 23 22 22 22 22 23 24 25 26 26 25 24 24 24 24 23 22 20 19 19 19 17 16 16 18 19 19 20 20 21 20 18 17 18 18 18 18 17 17 17
42 40 38 40 42 42 42 41 40 36 33 31 32 34 34 33 32 31 29 27 26 26 27 27 26 25 24 23 21 21 21 22 22 22 22 22 24 25 25 25 25 24 24 24 23 23 23 23 23 24 25 26 26 25 24 23 22 23 24 24 24 23 21 20 20 19 17 17 17 17 17 17 18 18 18 18 17 17 17 18 18 17 16 16 16
43 41 39 41 43 42 42 41 40 38 34 32 33 35 34 34 33 32 30 28 27 27 27 27 27 26 25 23 21 21 22 23 23 23 23 23 24 24 25 25 25 25 24 24 24 24 23 24 24 25 25 24 23 23 22 22 23 23 23 24 23 23 21 20 19 19 18 18 17 16 15 15 16 16 16 16 16 17 17 17 17 17 17 17 17
42 40 38 40 42 43 42 41 40 38 35 34 34 34 35 35 34 33 31 29 28 26 26 28 28 26 25 23 22 22 23 23 23 23 23 23 24 24 25 26 25 25 25 25 24 24 24 24 25 24 23 21 21 23 23 23 23 23 23 23 23 23 21 20 19 19 18 17 16 15 15 14 15 15 16 16 16 17 17 17 17 17 18 18 18
42 40 39 40 42 43 43 42 41 39 36 35 34 34 35 36 35 34 32 30 28 26 27 28 28 27 25 24 24 24 24 23 23 23 24 24 24 25 25 26 25 25 25 25 25 25 25 25 24 22 20 21 23 24 24 24 23 23 23 24 24 23 21 20 20 19 18 17 16 15 14 14 15 15 15 16 17 17 17 17 18 18 19 19 20
42 42 41 41 42 43 42 42 41 39 37 35 34 34 36 37 36 35 33 31 28 27 27 28 29 28 27 26 25 24 24 24 23 24 24 24 25 25 26 26 26 25 25 25 25 25 25 24 23 21 22 24 24 24 24 24 23 23 24 25 24 22 21 21 21 19 18 18 16 15 14 14 14 14 15 16 17 17 17 18 19 19 19 19 20
43 42 41 40 41 42 42 41 40 39 37 36 34 34 37 38 37 36 34 32 29 27 27 29 30 29 27 27 26 25 25 24 24 24 24 25 25 26 26 26 26 25 25 25 26 26 24 23 23 23 25 25 24 24 24 23 23 23 24 24 24 23 21 21 20 19 18 18 17 16 15 15 14 14 15 16 16 17 17 18 19 19 19 19 20
42 40 39 40 41 41 41 40 39 38 37 36 35 35 37 39 38 36 35 32 29 28 28 29 30 29 28 28 28 27 26 25 24 24 24 25 25 26 27 26 25 25 25 26 26 26 24 23 23 24 25 24 24 25 25 23 23 23 23 24 23 22 21 21 20 18 18 19 19 17 16 16 15 15 15 16 17 17 17 18 18 19 19 19 19
39 37 37 39 40 40 39 39 38 38 37 36 35 35 38 39 38 36 35 32 30 29 29 30 30 29 28 29 29 28 27 25 24 24 24 24 25 26 26 25 24 24 25 26 26 25 24 23 23 24 24 25 26 26 24 23 23 22 23 24 23 22 22 22 19 17 18 19 20 19 18 17 16 15 16 17 17 17 18 18 18 19 20 20 19
36 35 36 38 38 39 38 38 38 37 37 36 35 35 38 39 38 36 35 33 31 30 30 29 30 30 30 30 30 29 27 26 24 24 24 25 25 25 25 24 25 25 26 27 26 25 24 23 23 24 25 26 27 27 25 23 22 22 23 23 22 23 24 22 18 17 19 20 20 20 20 18 17 16 16 17 17 18 18 18 19 19 20 20 19
35 35 37 38 38 38 38 38 37 36 36 35 34 35 38 39 37 35 34 33 31 30 30 29 30 31 31 31 30 30 29 27 25 25 25 25 25 25 25 25 25 26 26 26 25 24 23 23 24 25 26 27 28 28 25 21 20 22 23 24 24 24 24 21 19 18 19 19 19 20 20 19 19 18 18 18 18 18 18 18 19 20 20 20 20
38 39 39 39 37 37 37 38 37 36 35 35 34 35 37 37 35 34 33 32 31 30 29 30 31 31 31 31 32 31 30 28 26 25 25 25 24 24 24 25 26 27 26 25 24 23 23 24 25 25 26 27 28 27 23 19 19 21 23 23 24 24 24 23 21 19 19 19 20 20 20 20 20 19 19 19 19 18 18 19 20 20 20 20 20
38 39 40 39 37 38 38 37 37 36 35 35 34 34 35 34 34 33 33 33 31 30 31 31 31 31 31 33 34 32 30 29 27 26 25 24 23 24 24 26 27 26 25 24 23 23 24 24 24 24 25 26 26 24 20 17 17 19 20 21 21 22 24 24 22 20 20 20 20 20 20 20 20 20 20 20 19 19 19 20 20 20 19 19 20
35 36 37 38 39 38 38 38 38 36 36 35 34 34 33 33 33 33 34 33 31 31 32 32 31 30 31 34 35 33 31 29 27 26 24 23 23 23 24 25 26 26 25 23 23 23 23 24 24 26 26 24 23 22 20 17 17 18 19 20 21 22 23 23 21 20 20 20 20 21 21 21 21 22 21 21 20 20 21 21 21 20 20 20 20
34 33 31 33 36 37 38 39 37 35 35 34 33 32 32 32 33 33 34 33 32 33 33 31 30 31 32 33 33 32 30 29 27 26 24 23 22 23 23 23 24 24 23 22 22 23 24 25 25 26 24 22 21 21 20 18 18 18 19 19 21 23 23 22 21 20 21 21 21 21 22 22 23 23 22 22 22 22 22 22 21 21 21 21 21
34 33 29 28 31 34 35 34 31 31 32 31 30 30 30 31 33 33 33 33 33 34 33 31 29 30 31 30 31 31 30 29 28 27 24 23 22 22 22 22 22 21 20 21 22 24 25 25 25 25 23 21 20 20 20 20 19 19 20 21 22 23 23 22 21 21 21 22 22 22 23 24 24 24 23 23 23 23 22 22 21 22 23 23 22
31 33 31 29 29 31 31 28 25 27 28 27 28 29 30 31 32 32 31 32 32 32 33 32 30 29 28 28 28 29 30 30 29 28 26 25 24 23 23 23 22 21 21 22 24 25 26 25 25 24 23 21 20 21 21 20 20 20 21 22 22 22 22 21 21 21 22 23 24 25 25 25 25 25 25 24 23 22 23 23 22 22 23 24 23
28 27 26 26 28 30 28 26 26 27 28 28 29 30 30 31 30 29 29 29 28 29 31 32 30 27 25 24 25 27 29 29 28 27 27 27 26 24 23 24 24 23 22 23 24 24 24 23 22 21 20 20 21 22 22 21 20 20 20 20 20 20 20 20 21 22 22 24 26 27 26 25 25 26 26 25 24 23 23 23 23 23 24 24 24
28 25 22 23 28 32 31 28 28 29 30 30 31 31 30 29 28 29 30 28 27 28 28 27 25 23 22 21 23 24 25 25 25 27 28 27 26 25 26 27 26 24 22 22 22 23 22 20 18 18 17 18 19 20 20 20 21 21 21 20 20 19 19 19 21 22 24 26 27 28 27 26 26 27 26 26 25 24 24 25 25 25 24 24 24
28 27 25 23 25 32 36 34 31 33 33 31 32 32 31 30 28 29 30 29 28 28 27 25 23 22 20 21 22 22 22 23 27 29 30 29 28 28 29 29 26 24 23 23 23 23 21 18 16 15 16 17 18 19 20 21 22 22 22 22 22 21 21 21 22 23 25 27 28 29 28 27 27 27 27 27 26 26 26 25 25 25 25 25 25
25 25 27 27 26 30 38 37 35 36 36 34 34 34 32 32 33 33 31 28 28 29 27 25 23 22 21 21 22 22 23 26 28 29 29 28 28 28 28 27 25 25 25 24 22 20 18 16 16 16 17 18 19 20 21 22 23 23 23 23 24 24 24 23 24 25 26 28 29 30 29 28 28 28 28 28 28 27 26 26 26 26 25 26 26
25 24 26 27 26 30 36 38 38 39 39 37 36 34 32 34 36 37 35 32 30 30 29 26 22 20 20 21 22 23 24 25 26 27 27 28 27 27 26 26 25 24 22 21 19 18 17 17 18 19 19 20 19 20 22 24 24 24 23 23 25 26 26 25 26 27 27 28 29 30 30 30 29 29 29 29 29 28 27 26 26 26 26 26 27
31 30 30 30 30 33 37 39 39 40 39 38 37 35 35 38 40 40 39 37 34 33 31 27 22 20 20 22 22 22 23 24 25 25 26 27 27 27 26 25 23 20 19 19 19 19 19 20 21 21 21 21 20 21 22 24 25 24 24 24 25 26 27 27 27 28 28 28 28 28 29 30 30 29 29 29 29 28 27 26 26 27 26 26 27
35 33 32 31 33 34 36 38 39 39 39 39 39 39 41 42 41 40 39 39 36 32 28 24 22 22 22 22 22 21 21 22 23 24 26 26 26 26 24 22 20 19 20 21 22 21 21 22 23 23 22 21 21 22 23 23 23 25 26 26 26 26 27 28 28 28 28 27 27 27 27 28 29 29 28 28 28 29 28 27 26 26 26 27 27
34 32 30 31 33 34 36 37 38 39 38 38 41 45 46 42 38 36 35 35 32 28 24 22 22 23 22 21 20 20 20 22 23 23 23 23 23 22 21 20 20 21 23 24 24 23 22 22 22 22 21 20 21 22 23 22 21 21 24 27 27 26 27 27 28 27 27 27 26 25 25 26 27 28 28 28 28 29 28 27 26 26 26 27 27
32 32 34 35 35 34 34 35 36 36 35 36 41 45 42 38 37 36 33 30 28 24 22 22 22 22 21 21 20 21 23 22 21 20 20 21 20 20 20 20 22 23 23 24 24 23 21 20 20 20 19 20 21 21 21 20 19 20 23 25 25 23 23 24 25 25 25 24 23 23 23 24 25 26 27 27 28 28 28 26 26 26 26 26 27
32 36 37 37 35 34 33 33 34 34 34 36 40 40 35 33 34 33 29 27 26 24 23 23 22 21 21 22 22 23 23 21 20 21 22 22 22 22 22 23 24 22 21 20 20 20 19 18 18 19 19 19 20 18 17 17 18 20 21 21 19 19 20 20 21 21 21 21 21 21 22 22 23 24 25 26 27 27 27 26 25 25 25 26 27
32 35 34 33 33 33 32 32 32 33 35 38 39 37 33 31 31 30 29 29 29 27 25 24 23 22 22 22 22 22 22 21 22 23 23 23 23 22 21 22 22 21 21 19 18 18 18 18 18 18 17 17 17 16 15 16 16 17 18 18 17 18 19 19 18 18 18 19 20 21 22 23 24 25 26 27 27 27 26 26 25 24 25 25 26
29 31 31 31 31 30 32 33 34 35 37 38 37 35 34 31 29 29 30 30 29 27 25 24 24 24 24 23 23 22 22 23 24 24 23 22 20 19 19 20 21 22 21 20 18 18 18 18 17 16 16 16 16 16 15 14 14 15 17 17 17 17 18 18 18 18 19 19 21 22 23 24 25 26 26 26 26 26 26 25 24 24 24 25 25
30 30 29 29 29 29 32 35 35 35 36 36 34 32 31 27 25 24 24 24 24 24 23 23 23 22 22 21 21 21 22 23 23 22 20 17 17 18 21 22 22 21 19 19 19 19 19 17 16 15 15 16 16 15 15 15 16 17 17 18 18 18 19 19 19 20 20 20 21 21 22 22 23 24 24 24 25 24 24 24 24 24 25 25 24
27 27 28 28 29 31 33 34 33 31 31 30 28 27 25 23 22 22 22 22 22 22 21 20 19 18 17 18 18 19 21 21 20 18 16 16 18 20 21 21 19 19 18 18 19 19 18 17 16 16 16 17 17 17 16 17 17 17 16 17 18 19 20 20 19 19 19 19 20 21 21 21 22 22 22 23 23 22 22 22 23 24 24 24 24
24 27 30 31 31 31 31 30 28 26 24 23 22 21 20 20 21 21 21 20 20 19 18 17 16 15 15 16 17 18 18 18 17 17 17 18 19 19 19 18 18 18 17 18 18 18 17 17 16 16 17 17 17 16 15 14 14 15 16 17 18 18 18 18 18 18 18 19 19 20 20 20 20 19 20 20 20 20 20 22 23 23 23 23 23
25 27 28 29 28 27 26 24 24 23 21 21 20 19 18 18 18 18 17 16 15 15 14 14 14 14 15 15 16 17 17 16 16 16 17 18 18 17 17 17 17 17 17 18 18 18 17 16 16 16 15 14 13 12 11 11 12 13 14 15 16 16 17 17 17 18 19 19 18 18 17 18 18 18 19 19 19 20 21 22 22 21 21 21 21
22 22 23 23 24 24 23 21 20 20 20 19 19 18 16 15 15 14 13 13 13 13 13 13 14 14 15 15 16 16 15 15 15 16 16 17 17 17 17 17 17 17 18 18 18 18 17 16 15 14 12 11 10 9 10 10 11 12 13 14 14 15 16 16 17 17 17 17 17 16 16 16 17 18 18 19 20 20 21 21 20 20 20 20 20
15 16 17 18 19 21 21 20 19 19 19 18 17 16 16 15 15 14 14 14 14 14 14 13 13 14 14 15 15 14 14 15 15 16 17 17 18 17 17 17 18 18 18 18 18 18 16 15 13 13 12 11 11 10 10 11 11 11 12 13 13 14 14 15 15 16 16 16 16 15 15 15 16 17 17 18 18 19 19 19 19 19 19 19 19
11 12 12 12 13 14 15 16 16 16 16 15 14 13 13 13 14 14 14 14 14 14 13 13 13 13 14 14 14 14 15 16 16 17 17 17 17 17 18 18 18 18 18 18 17 15 14 13 13 13 12 12 11 11 11 11 11 11 11 12 12 13 14 15 15 16 16 16 16 15 15 15 15 15 16 16 16 16 16 17 17 17 17 17 18
9 9 9 9 10 10 11 12 13 13 13 13 12 12 13 13 13 13 13 13 13 13 13 13 13 13 14 14 14 15 16 16 16 16 17 17 18 18 18 19 18 18 17 15 14 12 12 13 13 13 13 12 11 11 11 11 11 11 11 12 13 14 15 15 16 16 16 16 15 14 14 13 14 14 14 14 14 14 15 16 16 16 16 17 17
7 7 8 8 9 10 11 11 12 12 12 12 12 12 13 13 13 13 13 12 12 12 12 12 13 13 13 14 14 15 15 16 16 17 18 18 19 19 18 18 17 16 14 13 12 12 13 13 14 13 13 12 11 10 10 10 11 12 12 12 13 14 14 15 15 15 15 15 14 13 13 13 13 13 13 12 13 13 13 14 14 15 15 16 16
7 7 7 7 8 9 10 11 11 12 12 12 13 13 13 13 13 12 12 12 11 11 11 11 12 12 13 13 14 15 16 17 17 18 19 19 18 18 17 16 15 14 13 12 12 13 14 14 14 14 13 12 11 10 11 11 12 12 11 11 12 13 13 14 14 14 14 14 13 13 12 12 12 12 11 11 11 11 11 12 13 13 14 14 15
9 9 8 8 9 9 10 10 11 11 11 11 11 11 11 11 11 11 10 10 10 10 10 11 12 13 14 15 16 17 18 18 17 17 17 17 17 16 15 14 13 12 12 12 13 13 14 14 14 13 13 12 11 11 11 11 11 10 10 11 11 12 12 13 14 14 13 13 12 12 11 11 11 11 10 10 10 10 10 11 12 12 13 14 14
9 10 10 9 9 9 9 9 9 10 10 10 10 10 10 9 9 9 9 9 10 11 12 13 15 15 15 16 16 17 16 16 15 15 16 15 15 14 13 12 12 12 12 12 12 13 13 13 13 13 12 11 11 10 10 10 10 10 10 11 11 12 12 13 14 13 13 12 12 11 10 10 10 10 10 10 10 10 11 12 13 14 15 16 17
Wind_Direction
222 226 229 235 239 237 231 227 230 234 231 221 217 219 221 219 217 219 223 227 229 232 233 234 234 235 240 245 250 253 254 255 258 259 259 257 253 245 235 230 228 231 240 244 246 251 255 260 265 272 278 281 282 282 280 278 277 277 279 281 282 284 286 288 291 294 297 297 297 297 298 298 299 300 303 308 311 310 308 308 308 309 309 312 315
219 224 228 233 237 236 231 227 229 234 232 222 217 219 221 218 217 219 223 228 230 232 232 232 233 235 240 246 250 252 253 254 256 256 255 254 249 239 231 229 230 233 239 243 247 252 257 262 268 274 278 280 282 282 280 279 279 279 281 282 283 284 286 289 292 295 296 296 297 298 299 300 301 303 306 308 308 305 302 300 300 303 308 312 314
218 223 227 232 235 235 230 227 229 232 232 224 218 220 222 219 218 220 223 227 230 231 231 232 234 237 241 246 248 251 252 253 254 254 252 248 240 232 228 228 229 233 239 243 246 252 258 265 271 275 278 281 282 282 281 280 280 281 281 282 284 286 288 292 294 296 297 298 300 301 302 303 303 303 304 305 303 299 296 298 303 309 313 315 313
218 222 226 230 233 234 231 228 229 231 232 227 220 220 222 220 219 220 223 227 229 231 232 233 236 239 243 247 248 249 251 252 253 252 250 244 235 229 228 229 231 234 238 243 247 253 259 265 271 276 279 281 281 281 281 281 282 282 283 284 286 288 289 291 292 294 297 301 304 305 305 303 301 301 303 302 299 296 296 302 309 313 315 315 314
218 221 225 229 232 234 233 229 229 232 233 228 221 220 222 222 220 221 223 227 229 232 233 235 239 241 244 247 248 248 250 251 251 249 247 241 233 229 228 229 232 237 241 246 251 256 262 268 273 277 279 280 281 282 283 284 285 285 286 286 287 286 286 286 287 289 293 300 306 306 305 303 302 303 304 301 298 297 301 308 313 314 314 314 314
217 220 224 228 231 234 234 231 230 232 233 229 222 220 222 222 221 222 224 226 228 231 233 236 240 243 245 247 248 249 249 249 249 247 244 238 231 229 229 231 235 241 245 249 254 260 266 271 275 277 279 281 283 285 286 286 287 287 287 287 288 287 287 290 292 292 293 299 305 306 305 304 303 304 304 301 300 302 307 312 314 312 312 313 314
217 219 223 227 230 233 233 231 230 232 233 229 223 220 222 223 222 223 224 225 227 229 232 236 240 243 245 248 250 249 249 249 249 246 242 236 230 229 230 232 236 241 247 253 259 265 269 273 275 278 281 284 286 287 286 286 286 287 287 288 290 291 294 296 296 293 293 297 302 305 304 302 302 303 303 302 301 304 308 310 310 310 311 312 314
216 218 220 224 227 231 233 231 230 231 232 230 224 220 221 223 222 223 224 226 226 228 231 234 238 242 245 249 251 250 250 250 249 246 241 235 229 228 230 233 237 243 250 257 263 267 270 272 275 278 282 285 286 285 284 285 286 286 287 289 292 294 297 297 295 292 294 298 301 302 300 300 301 302 302 302 302 304 305 306 306 308 311 311 312
214 215 217 220 224 229 232 231 229 229 231 231 225 221 221 223 222 223 225 225 225 228 231 233 237 242 246 249 252 251 250 251 249 245 240 234 229 228 230 235 241 247 254 260 264 267 269 272 275 278 281 283 282 282 283 284 285 285 288 291 294 294 294 294 294 296 298 300 301 300 298 299 301 302 301 301 302 304 304 303 304 308 309 309 309
211 213 215 216 220 225 230 231 229 228 231 232 227 222 221 222 222 223 225 225 225 229 233 236 239 244 247 250 252 251 250 251 249 244 239 234 230 230 232 238 245 251 257 260 263 265 268 271 275 278 280 279 279 281 283 284 286 289 292 294 293 290 289 290 292 294 297 299 300 298 297 299 301 302 301 302 303 304 302 302 305 309 310 309 310
215 219 220 217 216 220 226 230 229 227 230 232 229 223 222 223 222 223 224 224 225 230 235 238 241 243 246 249 251 249 248 249 248 243 238 235 233 233 236 242 249 254 258 259 261 265 268 273 277 279 279 279 281 283 285 287 290 295 297 295 291 287 286 286 287 289 292 294 295 295 297 300 302 302 302 303 305 304 303 305 308 310 310 310 311
221 224 223 218 217 218 222 227 228 226 228 232 230 225 223 223 222 223 224 224 226 231 237 240 242 243 245 248 248 247 246 247 246 242 238 236 236 237 241 246 252 255 257 259 262 266 271 275 277 279 279 280 284 288 289 292 296 301 302 299 291 285 282 281 282 284 287 291 292 293 296 298 299 300 301 303 305 306 306 308 310 312 312 313 313
222 222 221 219 218 217 219 224 225 224 227 231 231 227 224 223 224 223 224 224 227 231 236 241 243 243 244 246 247 245 244 245 244 241 237 237 238 241 245 249 253 255 258 261 264 267 272 275 276 279 282 284 288 292 293 297 301 304 304 301 291 283 279 278 278 281 286 289 290 291 293 294 296 299 301 304 306 307 309 310 312 314 315 315 315
220 221 221 220 218 216 217 221 223 222 225 230 231 229 225 224 225 224 223 225 228 231 236 241 244 243 243 244 244 244 243 243 242 240 237 237 239 242 246 250 253 257 260 262 265 268 272 275 278 281 284 286 289 291 294 298 302 304 304 299 289 280 276 275 276 281 286 288 288 290 292 293 296 300 304 306 307 308 310 311 313 315 316 314 315
221 221 220 218 216 214 215 219 221 221 223 229 231 229 225 225 226 224 224 226 228 231 236 242 244 243 242 243 243 244 244 243 242 240 238 238 240 243 246 250 254 258 260 263 265 269 272 276 280 282 284 287 289 291 294 299 302 302 300 294 284 276 273 273 276 281 284 285 287 290 292 293 297 302 305 307 308 309 311 312 314 316 316 315 317
218 217 214 213 213 212 213 217 219 220 223 228 231 228 226 226 226 224 224 225 227 230 235 240 243 242 240 241 243 245 245 244 241 239 238 239 241 243 247 251 255 258 261 264 267 270 274 277 281 285 288 290 291 292 295 298 299 298 294 287 279 274 271 273 277 281 285 288 290 290 290 291 294 298 301 304 306 308 311 313 315 316 316 317 321
212 210 209 209 210 211 213 216 218 219 223 228 231 229 227 226 225 224 224 225 227 231 235 240 242 242 240 241 244 246 246 244 241 240 240 240 242 245 248 252 256 259 261 264 267 271 275 278 281 287 291 291 291 292 293 295 296 294 289 283 276 271 270 273 277 282 287 291 291 288 287 287 289 293 296 299 304 307 310 313 314 314 315 318 321
208 206 205 205 208 209 211 215 217 219 223 229 231 228 227 226 225 223 223 225 227 230 234 238 242 242 241 241 242 245 245 245 243 241 241 241 243 245 249 252 256 259 262 264 267 271 274 278 283 287 291 293 294 295 295 294 293 291 286 280 273 269 270 273 278 283 288 290 290 288 288 287 287 290 294 298 304 307 309 310 311 312 313 314 316
205 203 202 203 205 206 209 213 216 219 223 228 230 227 225 226 224 221 221 223 226 228 232 237 241 243 241 240 240 243 245 246 245 242 242 242 243 246 249 252 255 258 261 263 266 270 274 278 281 284 289 296 298 298 297 295 292 288 283 277 270 266 269 274 279 286 289 289 290 290 290 289 286 289 293 298 302 305 306 307 308 309 310 311 313
204 201 201 201 202 205 209 212 215 218 223 227 228 225 223 225 223 220 219 222 225 227 232 237 241 241 240 239 239 242 245 246 244 242 241 242 243 246 249 251 254 256 259 261 264 269 274 276 278 283 290 295 296 297 297 296 292 287 281 274 266 265 270 275 281 287 287 286 288 289 288 286 284 286 290 294 298 301 303 305 308 309 310 311 312
205 203 202 202 203 206 210 212 214 217 222 225 224 222 222 223 222 219 218 222 225 229 233 237 239 239 239 238 239 240 243 244 243 241 241 242 244 246 248 251 253 256 258 262 265 268 271 273 278 283 288 291 294 296 297 295 291 286 279 270 266 268 272 275 279 283 283 282 285 287 286 284 283 285 288 292 294 297 300 304 308 310 311 311 311
203 203 203 204 206 208 210 211 212 215 219 221 221 220 220 221 220 218 218 222 226 230 234 237 238 238 239 240 239 239 241 244 243 241 241 242 244 247 249 251 255 257 259 262 263 264 269 273 276 280 284 288 292 294 295 293 289 285 278 271 271 273 275 276 279 282 282 283 286 286 283 281 281 284 286 288 291 295 298 302 306 309 310 309 308
201 203 204 206 208 210 210 210 211 214 217 218 218 218 218 218 218 217 218 222 226 230 233 235 237 239 240 240 239 238 239 242 243 244 244 244 244 248 252 255 257 259 260 261 262 266 270 272 274 282 289 289 290 293 297 297 292 286 281 278 277 276 277 279 282 285 285 285 285 282 279 279 281 282 283 286 289 293 295 298 303 306 308 307 305
205 206 207 208 209 209 210 210 210 211 214 216 216 217 217 217 217 217 219 223 227 230 232 235 237 237 238 239 238 237 237 239 243 246 247 246 247 251 256 258 258 257 257 260 265 269 271 271 278 290 295 292 292 298 303 305 299 291 287 286 283 279 278 280 283 284 283 283 282 280 279 279 280 280 281 285 287 290 292 296 301 305 307 308 306
211 211 212 215 214 210 210 214 213 210 210 213 215 217 218 217 216 217 219 222 225 228 233 236 235 234 236 238 240 241 238 237 241 245 247 248 249 252 256 260 260 259 259 264 269 272 274 277 284 291 291 289 293 299 302 302 299 293 289 287 285 282 279 280 281 281 282 282 282 281 279 276 276 278 281 284 285 287 291 295 300 306 308 309 308
222 221 224 231 230 223 223 226 222 214 211 212 214 215 216 215 215 216 219 222 224 229 234 234 229 230 235 238 241 244 241 237 238 242 245 248 248 249 254 260 262 262 263 268 273 275 276 279 284 287 286 285 289 293 294 295 294 291 288 285 283 283 282 283 283 282 281 281 282 282 278 274 276 279 281 282 283 285 289 293 300 306 307 307 307
229 229 233 238 236 233 236 236 226 214 212 213 214 213 212 211 214 217 220 224 228 230 231 229 226 228 234 237 239 242 241 238 237 239 243 246 245 247 253 258 261 263 265 268 270 272 274 277 281 283 283 284 285 286 286 287 289 290 289 286 283 282 283 284 285 283 279 279 280 281 278 275 276 279 280 282 283 285 288 293 298 302 302 303 306
228 233 239 243 240 237 235 228 217 212 211 213 214 213 211 211 214 218 221 227 232 231 228 226 225 227 232 236 239 240 239 238 238 240 243 245 246 250 254 257 260 265 267 267 270 274 279 282 281 280 281 283 283 282 281 282 284 286 288 287 285 282 281 281 283 280 276 275 278 280 279 277 278 279 280 282 283 284 287 291 295 297 299 301 304
230 234 239 242 240 233 226 221 217 214 212 213 213 213 213 214 218 222 222 222 225 226 224 223 223 224 228 233 237 238 236 235 236 237 239 240 240 243 248 253 260 267 269 273 278 283 287 285 279 276 279 281 280 279 278 279 279 280 282 284 284 281 279 278 278 276 273 273 275 278 279 279 279 280 282 283 284 284 287 290 293 296 298 300 302
233 238 242 246 240 226 218 218 217 212 212 214 214 215 215 213 213 216 217 214 214 216 218 218 220 221 222 225 229 229 227 227 230 233 236 238 237 238 242 248 257 264 268 274 279 284 286 281 273 271 274 275 276 276 275 276 277 278 281 282 282 280 276 272 271 271 270 270 272 274 277 279 281 283 285 286 286 286 288 291 294 297 298 299 300
230 236 242 249 247 229 218 216 213 210 211 214 216 219 219 213 208 208 208 209 213 216 218 220 222 221 218 220 224 226 225 227 231 234 237 240 240 240 242 247 254 261 266 271 276 280 280 271 261 260 263 268 273 277 277 277 277 278 282 286 285 282 277 272 270 269 269 269 270 273 277 280 283 286 288 289 289 290 292 294 295 296 297 297 298
224 225 226 230 232 225 218 214 212 210 211 214 217 217 212 209 207 203 200 204 212 218 222 224 225 224 221 222 226 228 229 232 235 237 238 239 239 238 241 247 255 261 267 273 276 276 270 260 255 257 260 265 273 280 282 282 279 277 281 285 285 282 279 275 273 271 271 272 273 276 279 281 284 287 291 292 293 293 294 294 294 293 293 295 297
213 213 210 209 211 214 215 214 212 212 213 216 217 212 207 209 208 201 198 202 209 216 222 225 224 225 225 226 230 232 234 235 236 237 238 239 238 240 246 254 262 269 274 276 276 272 263 256 255 259 262 267 273 278 283 286 285 283 281 280 278 277 277 275 274 273 273 274 274 276 279 281 284 287 290 293 293 292 291 291 291 291 291 292 294
205 204 203 204 207 209 211 211 211 211 214 216 214 209 208 210 205 198 200 206 210 216 222 224 223 226 228 230 234 235 235 237 237 237 238 240 244 251 258 265 271 275 276 275 272 268 263 260 261 264 267 270 273 275 278 282 285 287 285 281 277 276 277 277 278 278 277 276 277 279 280 281 283 285 288 291 291 290 289 289 289 289 289 290 292
203 200 202 207 209 209 210 210 210 212 215 216 212 207 204 202 197 197 202 208 213 221 226 222 222 227 231 235 238 239 239 240 240 241 245 251 259 265 267 270 274 275 275 274 270 268 267 268 271 273 272 272 274 275 278 280 281 283 284 283 281 280 280 280 282 282 281 281 283 284 283 283 284 285 287 290 291 290 289 289 288 288 289 290 292
201 199 203 205 206 206 207 208 210 212 213 212 209 205 199 196 197 199 202 206 214 222 224 222 223 227 230 235 239 241 244 246 246 251 258 264 268 269 268 272 276 277 276 273 271 270 272 276 279 279 276 275 276 277 279 280 279 279 283 285 285 284 283 283 284 283 282 283 286 287 288 288 288 288 289 291 292 291 290 289 289 289 290 292 294
202 203 203 202 200 201 203 205 207 207 205 203 203 201 194 193 197 198 199 205 212 216 219 224 229 231 234 237 239 241 245 249 253 259 264 267 267 269 270 273 277 280 280 276 271 273 278 282 284 284 281 280 280 281 281 279 276 277 282 286 287 287 286 286 286 284 283 284 286 288 290 290 289 289 289 290 291 291 290 290 289 289 290 292 294
208 205 201 200 199 201 204 205 201 198 196 196 198 196 192 193 195 194 195 202 210 214 220 226 233 238 240 241 241 242 245 249 254 259 264 266 268 270 273 277 282 286 286 281 278 282 287 288 287 286 286 286 285 284 284 282 278 277 279 281 282 284 284 285 285 285 284 285 284 284 284 283 283 284 285 287 289 290 290 289 288 287 288 290 292
204 201 198 198 200 201 202 199 194 190 189 190 190 191 191 195 198 197 197 203 211 218 224 230 236 241 241 240 241 243 245 249 255 260 264 267 270 276 282 286 288 288 286 285 287 292 294 293 290 288 290 291 287 283 283 284 282 279 277 276 277 280 281 282 284 284 284 284 282 281 281 281 282 284 286 288 290 290 289 288 286 284 284 287 290
199 200 198 198 197 194 192 192 190 188 185 184 186 189 193 197 201 203 205 210 215 221 226 232 236 239 239 240 243 246 249 254 258 260 263 269 277 282 285 287 286 283 283 286 291 294 295 295 293 292 292 291 285 277 273 272 271 273 274 275 275 277 278 279 280 281 281 281 282 282 283 284 284 285 287 289 289 289 289 288 285 283 283 286 290
194 194 190 188 187 185 184 186 188 186 184 184 187 190 192 196 201 204 207 211 215 219 224 229 232 236 238 240 243 247 252 256 260 264 269 275 279 279 279 279 280 281 284 288 290 292 294 297 298 296 293 290 283 274 267 263 264 268 271 273 274 274 275 276 278 279 280 281 281 283 284 284 284 286 288 289 289 291 293 291 286 283 283 286 290
181 180 178 179 180 181 181 181 179 179 180 183 187 191 195 199 203 206 208 211 215 219 224 228 232 236 239 242 248 252 255 259 263 266 269 271 271 270 272 274 278 282 286 287 288 291 295 298 297 293 290 286 281 274 267 262 261 262 265 269 271 273 275 276 277 278 279 280 282 284 285 286 287 289 291 291 291 293 294 291 286 283 284 287 290
162 166 170 172 172 173 175 174 172 173 178 183 187 191 195 200 207 213 216 217 220 222 224 227 231 235 239 245 250 253 255 257 258 258 260 261 264 268 272 276 279 281 283 285 288 292 294 293 289 285 282 279 274 267 259 254 254 258 263 268 270 272 274 275 276 277 280 282 285 286 287 288 288 288 289 290 289 289 289 289 288 288 288 289 290
147 152 157 159 160 163 168 170 171 174 179 184 187 188 190 199 212 222 223 222 222 224 225 229 233 238 242 245 247 248 250 251 251 253 257 262 267 272 275 277 279 280 283 286 288 289 288 284 277 271 266 263 259 255 252 252 256 260 263 266 268 270 273 275 277 280 282 284 284 285 285 285 285 285 285 286 285 285 286 288 289 288 287 287 289
142 148 152 157 163 168 172 175 177 181 186 190 192 195 199 206 213 216 216 218 222 226 230 234 236 237 238 239 240 243 246 250 254 260 265 269 272 274 276 277 279 281 283 284 284 283 278 271 260 253 250 250 252 252 253 255 258 259 262 265 268 271 274 277 280 283 284 284 283 283 283 281 281 281 282 282 283 284 285 286 286 286 286 287 289
141 144 147 152 160 167 172 176 181 187 193 196 198 202 205 206 207 209 213 218 221 224 227 229 229 232 236 240 246 252 257 260 265 268 270 272 273 274 275 276 277 279 280 280 278 272 264 252 245 243 245 247 249 252 255 257 258 258 261 265 270 274 279 283 286 287 287 286 285 283 281 280 278 277 278 279 281 282 284 284 285 286 287 286 287
144 146 148 151 157 163 169 175 180 184 188 191 192 194 197 200 203 208 212 215 218 221 224 228 233 240 247 253 258 262 265 267 269 270 271 272 273 273 273 274 275 275 275 272 265 255 246 239 239 241 243 246 250 253 256 257 257 259 263 269 276 282 288 292 293 293 292 290 288 285 282 280 278 277 277 277 279 282 283 284 285 285 285 285 288
156 159 158 160 164 168 170 173 174 175 178 181 184 189 194 198 202 206 210 215 220 225 231 238 245 252 257 261 264 266 266 267 268 269 269 269 269 269 270 270 270 269 264 255 248 242 236 234 237 241 245 248 251 253 255 258 261 266 272 279 285 291 296 298 298 297 295 293 291 288 284 281 279 278 278 279 280 282 283 284 284 283 284 286 289
164 175 176 171 169 170 170 170 171 173 177 181 186 191 195 199 204 211 217 223 228 235 241 247 253 259 262 265 266 266 266 266 265 264 264 264 264 264 264 263 262 259 251 241 235 231 229 232 239 245 248 251 252 254 259 264 268 274 282 288 292 296 299 300 301 300 298 296 293 288 284 279 277 276 277 278 279 281 282 283 282 283 284 287 291
171 179 180 172 168 168 168 169 173 180 186 191 196 200 205 210 216 222 226 230 236 242 250 257 263 267 268 267 265 263 262 261 259 257 256 256 258 258 257 254 252 249 243 235 229 228 230 237 244 248 250 253 256 260 265 271 278 285 290 293 296 298 300 301 303 302 300 297 292 287 282 277 272 270 271 272 273 275 277 278 279 282 285 289 292
172 175 175 172 171 174 177 182 189 195 200 204 209 215 221 227 232 235 241 248 254 260 266 271 273 272 269 266 262 259 257 255 252 249 249 250 252 252 251 249 247 243 239 236 234 235 239 244 246 248 252 256 261 268 276 283 289 294 295 297 299 301 302 303 304 304 301 296 292 287 282 275 269 265 265 266 267 270 273 275 279 282 285 289 292
Height
3096 3100 3103 3106 3108 3110 3112 3113 3113 3115 3116 3118 3120 3123 3125 3126 3127 3128 3129 3130 3131 3132 3133 3135 3136 3137 3138 3138 3138 3139 3139 3140 3140 3141 3141 3142 3143 3144 3144 3146 3147 3148 3149 3150 3151 3151 3151 3152 3152 3152 3151 3151 3151 3150 3149 3148 3148 3147 3146 3145 3144 3143 3142 3141 3139 3138 3138 3137 3136 3135 3134 3133 3131 3130 3129 3128 3128 3127 3126 3124 3123 3121 3120 3118 3116
3092 3097 3100 3102 3105 3107 3109 3110 3111 3112 3114 3115 3118 3120 3122 3123 3124 3126 3127 3128 3129 3130 3131 3132 3134 3134 3135 3136 3136 3137 3137 3138 3138 3139 3140 3140 3141 3141 3142 3144 3145 3146 3147 3148 3149 3149 3149 3150 3149 3149 3149 3149 3148 3148 3147 3146 3145 3145 3144 3143 3142 3141 3140 3139 3137 3136 3136 3135 3134 3133 3132 3131 3130 3129 3128 3127 3126 3125 3123 3122 3120 3119 3118 3116 3113
3089 3093 3096 3099 3102 3104 3106 3107 3108 3109 3111 3113 3115 3117 3119 3120 3122 3123 3124 3125 3127 3128 3129 3130 3131 3132 3133 3133 3134 3135 3135 3136 3136 3137 3138 3138 3139 3140 3141 3142 3143 3144 3145 3146 3147 3147 3147 3147 3147 3147 3147 3147 3146 3145 3144 3144 3143 3142 3141 3140 3139 3138 3137 3137 3136 3134 3134 3133 3132 3131 3130 3130 3128 3127 3126 3125 3124 3122 3121 3119 3118 3117 3115 3113 3111
3084 3088 3092 3095 3098 3100 3102 3104 3105 3107 3108 3110 3112 3114 3116 3117 3119 3120 3122 3123 3124 3125 3126 3128 3129 3130 3131 3131 3132 3133 3133 3134 3134 3135 3136 3136 3137 3138 3139 3140 3141 3142 3143 3144 3145 3145 3145 3145 3145 3145 3145 3144 3143 3143 3142 3141 3140 3139 3138 3138 3137 3136 3135 3134 3133 3132 3131 3131 3130 3129 3128 3127 3126 3125 3124 3123 3121 3120 3118 3117 3115 3113 3112 3111 3109
3080 3084 3088 3091 3093 3097 3099 3101 3102 3104 3106 3107 3109 3111 3113 3114 3116 3117 3119 3120 3122 3123 3124 3125 3126 3127 3128 3129 3130 3131 3131 3132 3132 3133 3133 3134 3135 3136 3137 3138 3139 3140 3141 3142 3142 3142 3143 3143 3143 3143 3142 3141 3141 3140 3139 3138 3137 3136 3136 3135 3134 3133 3132 3131 3130 3129 3128 3128 3127 3127 3126 3125 3123 3122 3121 3120 3119 3117 3116 3115 3113 3110 3109 3108 3106
3076 3079 3083 3086 3090 3093 3096 3098 3100 3101 3103 3104 3106 3108 3110 3111 3113 3114 3116 3118 3119 3120 3122 3123 3124 3125 3126 3127 3127 3128 3129 3129 3130 3130 3131 3132 3133 3134 3135 3136 3137 3138 3139 3139 3140 3140 3140 3141 3140 3140 3139 3139 3138 3137 3137 3136 3135 3134 3133 3132 3131 3130 3128 3128 3127 3126 3126 3125 3124 3124 3123 3122 3121 3120 3119 3118 3116 3115 3113 3112 3110 3109 3107 3105 3104
3071 3074 3078 3082 3086 3089 3092 3095 3097 3098 3100 3101 3103 3105 3107 3108 3110 3112 3113 3115 3116 3118 3119 3120 3121 3122 3123 3124 3125 3126 3127 3127 3127 3128 3129 3130 3131 3132 3133 3134 3135 3136 3137 3137 3137 3138 3138 3138 3138 3137 3137 3136 3136 3135 3134 3133 3132 3131 3130 3129 3128 3127 3125 3125 3124 3124 3123 3122 3121 3120 3120 3119 3118 3117 3117 3116 3114 3113 3111 3110 3108 3107 3105 3103 3101
3067 3070 3074 3078 3082 3086 3089 3091 3093 3095 3096 3098 3100 3102 3104 3105 3107 3109 3110 3112 3114 3115 3116 3117 3119 3120 3121 3121 3122 3123 3124 3124 3125 3125 3126 3127 3128 3130 3131 3131 3132 3133 3134 3135 3135 3135 3135 3135 3135 3134 3134 3134 3133 3132 3131 3131 3130 3129 3127 3126 3125 3124 3123 3122 3121 3121 3120 3119 3118 3118 3117 3116 3116 3115 3114 3113 3112 3111 3109 3108 3107 3105 3104 3102 3100
3062 3066 3069 3073 3078 3082 3085 3087 3089 3091 3093 3095 3097 3098 3100 3102 3104 3105 3107 3109 3111 3112 3113 3114 3116 3117 3118 3119 3120 3121 3121 3122 3122 3123 3123 3124 3126 3127 3128 3129 3130 3131 3131 3132 3132 3132 3132 3132 3132 3132 3131 3131 3130 3129 3128 3128 3127 3125 3124 3123 3122 3121 3120 3119 3119 3118 3117 3116 3115 3115 3114 3114 3113 3113 3112 3111 3110 3108 3107 3106 3105 3104 3102 3101 3099
3058 3061 3065 3069 3074 3077 3080 3083 3085 3088 3089 3091 3093 3095 3097 3098 3100 3102 3104 3105 3107 3108 3109 3111 3113 3114 3115 3117 3117 3118 3119 3119 3119 3120 3120 3122 3123 3124 3125 3126 3127 3128 3129 3129 3129 3129 3129 3129 3129 3129 3128 3127 3126 3126 3125 3124 3123 3122 3121 3120 3119 3118 3117 3117 3116 3115 3114 3113 3113 3112 3112 3111 3111 3110 3109 3108 3107 3106 3105 3104 3103 3102 3101 3099 3098
3054 3058 3061 3065 3068 3071 3075 3078 3081 3084 3086 3087 3089 3091 3093 3095 3097 3099 3100 3102 3104 3105 3106 3108 3110 3111 3113 3114 3115 3115 3116 3116 3116 3117 3118 3119 3120 3122 3123 3124 3125 3125 3126 3126 3126 3126 3126 3126 3126 3126 3125 3124 3123 3123 3122 3121 3120 3119 3118 3117 3116 3115 3114 3113 3112 3112 3111 3110 3110 3109 3109 3108 3108 3107 3106 3105 3104 3103 3103 3102 3101 3100 3099 3098 3096
3050 3053 3057 3060 3063 3066 3071 3074 3077 3080 3082 3084 3086 3087 3089 3091 3093 3095 3097 3099 3100 3102 3103 3105 3107 3109 3110 3111 3112 3112 3113 3113 3113 3114 3115 3117 3118 3119 3120 3121 3122 3123 3123 3123 3123 3123 3123 3123 3123 3123 3122 3121 3120 3119 3119 3118 3117 3116 3115 3114 3113 3112 3111 3110 3109 3109 3108 3107 3107 3106 3106 3106 3105 3105 3103 3102 3102 3101 3101 3100 3099 3098 3097 3096 3095
3046 3049 3052 3055 3058 3062 3066 3069 3072 3075 3078 3080 3081 3083 3085 3087 3089 3091 3093 3095 3097 3099 3101 3102 3104 3105 3107 3108 3109 3109 3110 3110 3111 3112 3113 3114 3116 3117 3118 3119 3119 3120 3120 3120 3121 3121 3121 3120 3120 3120 3119 3118 3117 3116 3116 3115 3114 3113 3112 3111 3110 3109 3108 3107 3106 3106 3105 3104 3104 3103 3103 3103 3103 3102 3101 3100 3099 3099 3098 3097 3097 3096 3095 3094 3093
3040 3043 3046 3050 3054 3058 3061 3064 3068 3071 3074 3075 3077 3079 3081 3083 3085 3088 3090 3091 3093 3096 3097 3099 3100 3102 3104 3105 3105 3106 3107 3107 3108 3109 3111 3112 3113 3114 3115 3116 3117 3117 3118 3118 3118 3118 3118 3117 3117 3116 3116 3115 3114 3113 3113 3112 3111 3110 3109 3108 3107 3106 3105 3104 3103 3103 3102 3102 3101 3101 3100 3100 3100 3099 3098 3098 3097 3096 3096 3095 3094 3093 3092 3091 3090
3035 3038 3041 3045 3049 3053 3056 3060 3063 3066 3069 3071 3073 3075 3077 3079 3081 3084 3086 3088 3090 3092 3094 3095 3097 3099 3100 3101 3102 3103 3104 3105 3106 3107 3108 3109 3111 3112 3113 3113 3114 3115 3115 3115 3115 3115 3114 3114 3113 3113 3113 3112 3111 3110 3110 3109 3108 3107 3106 3105 3104 3103 3102 3102 3101 3100 3100 3099 3099 3099 3098 3097 3097 3097 3096 3095 3095 3094 3093 3093 3092 3091 3090 3089 3088
3028 3032 3035 3039 3044 3048 3052 3055 3058 3061 3064 3067 3069 3071 3073 3075 3078 3080 3082 3084 3086 3089 3091 3092 3093 3095 3096 3098 3099 3100 3101 3102 3103 3104 3105 3107 3108 3109 3110 3111 3111 3112 3112 3112 3112 3111 3111 3111 3110 3110 3110 3109 3108 3108 3107 3106 3105 3104 3103 3102 3101 3100 3100 3099 3099 3098 3098 3097 3097 3097 3096 3095 3094 3094 3094 3093 3093 3092 3091 3090 3090 3089 3088 3087 3085
3023 3027 3031 3035 3039 3043 3047 3050 3054 3057 3060 3062 3065 3067 3069 3071 3074 3076 3079 3081 3083 3085 3087 3088 3090 3092 3093 3095 3096 3097 3098 3099 3100 3101 3103 3104 3105 3106 3107 3108 3108 3108 3109 3109 3108 3108 3108 3108 3107 3107 3106 3106 3106 3105 3104 3103 3102 3101 3100 3099 3099 3098 3097 3097 3096 3096 3095 3095 3095 3095 3094 3093 3092 3092 3092 3091 3091 3090 3089 3088 3088 3087 3086 3085 3083
3018 3022 3026 3030 3034 3038 3042 3046 3049 3053 3056 3058 3061 3063 3065 3067 3070 3073 3075 3078 3080 3082 3084 3085 3087 3088 3090 3092 3093 3093 3094 3095 3097 3098 3100 3101 3102 3103 3104 3104 3105 3105 3106 3106 3105 3105 3105 3105 3104 3104 3103 3103 3102 3102 3101 3100 3099 3098 3097 3097 3096 3096 3095 3095 3094 3094 3093 3093 3093 3092 3092 3091 3090 3090 3090 3089 3089 3088 3087 3086 3085 3084 3083 3082 3081
3014 3018 3022 3026 3030 3034 3038 3041 3045 3049 3052 3055 3057 3059 3061 3064 3067 3070 3073 3075 3077 3079 3080 3082 3083 3085 3087 3088 3089 3090 3091 3093 3094 3095 3097 3098 3099 3100 3100 3101 3102 3102 3102 3102 3102 3102 3102 3102 3101 3101 3100 3100 3099 3098 3098 3097 3096 3095 3094 3094 3094 3093 3093 3092 3092 3091 3091 3091 3091 3090 3090 3089 3088 3088 3088 3087 3086 3086 3085 3084 3083 3082 3081 3080 3079
3012 3016 3019 3023 3026 3030 3034 3038 3041 3045 3048 3051 3053 3056 3058 3060 3063 3067 3069 3072 3073 3075 3077 3079 3080 3081 3083 3084 3086 3087 3088 3089 3091 3092 3093 3095 3096 3097 3097 3098 3099 3099 3099 3099 3099 3099 3098 3098 3098 3098 3098 3097 3096 3095 3095 3094 3093 3093 3092 3091 3091 3091 3090 3090 3090 3089 3088 3088 3088 3088 3087 3087 3086 3086 3085 3084 3084 3083 3082 3082 3081 3079 3078 3077 3076
3011 3013 3016 3019 3023 3026 3030 3034 3038 3041 3044 3047 3049 3052 3054 3056 3060 3064 3066 3068 3070 3072 3074 3076 3076 3077 3079 3081 3083 3084 3084 3086 3087 3089 3090 3091 3093 3094 3095 3096 3096 3096 3096 3096 3096 3095 3095 3095 3095 3095 3094 3094 3093 3092 3092 3091 3090 3090 3089 3089 3088 3087 3087 3087 3087 3086 3086 3086 3086 3085 3085 3084 3083 3083 3082 3082 3081 3081 3080 3079 3078 3077 3076 3075 3074
3007 3010 3014 3017 3020 3024 3027 3030 3034 3037 3040 3043 3045 3048 3050 3053 3057 3060 3063 3065 3067 3069 3071 3072 3073 3074 3076 3078 3079 3080 3081 3082 3084 3085 3087 3089 3090 3091 3092 3093 3093 3093 3093 3093 3093 3092 3092 3092 3092 3091 3091 3090 3090 3089 3089 3088 3087 3087 3086 3086 3085 3085 3085 3085 3084 3084 3084 3084 3083 3083 3082 3081 3081 3080 3080 3079 3079 3079 3078 3077 3076 3075 3074 3073 3071
3002 3006 3011 3015 3018 3021 3024 3027 3030 3033 3036 3039 3042 3044 3047 3051 3054 3057 3059 3062 3064 3066 3067 3068 3069 3071 3073 3074 3075 3076 3077 3078 3080 3082 3084 3086 3087 3088 3089 3089 3090 3090 3090 3090 3090 3089 3089 3088 3088 3088 3088 3087 3086 3086 3086 3085 3085 3084 3083 3083 3083 3083 3082 3082 3082 3082 3082 3082 3081 3081 3080 3079 3078 3078 3077 3076 3076 3076 3075 3074 3073 3072 3071 3070 3069
3000 3004 3008 3012 3015 3018 3021 3023 3025 3028 3032 3035 3037 3040 3044 3047 3050 3053 3055 3058 3060 3061 3062 3064 3066 3068 3068 3069 3070 3072 3074 3076 3077 3079 3081 3083 3084 3085 3085 3086 3086 3087 3087 3087 3087 3086 3086 3086 3085 3085 3085 3084 3083 3083 3083 3083 3082 3082 3081 3081 3080 3080 3080 3080 3080 3080 3080 3079 3079 3078 3077 3076 3075 3075 3074 3074 3073 3073 3072 3071 3070 3070 3069 3068 3067
2998 3002 3006 3009 3012 3016 3019 3020 3021 3025 3028 3031 3034 3037 3041 3043 3046 3049 3051 3054 3056 3057 3058 3061 3063 3064 3064 3065 3067 3070 3072 3073 3074 3076 3077 3079 3080 3081 3081 3082 3083 3084 3084 3084 3084 3083 3083 3083 3082 3082 3081 3081 3080 3080 3080 3080 3079 3079 3079 3078 3078 3077 3077 3077 3078 3078 3078 3077 3077 3076 3075 3073 3072 3072 3072 3072 3071 3070 3069 3068 3067 3067 3066 3065 3064
2998 3002 3006 3009 3010 3013 3016 3018 3021 3025 3027 3029 3032 3035 3037 3039 3042 3045 3048 3050 3052 3053 3055 3057 3059 3060 3061 3063 3065 3067 3069 3070 3071 3072 3074 3075 3076 3077 3078 3079 3080 3081 3081 3081 3080 3080 3080 3080 3080 3079 3078 3077 3077 3077 3077 3076 3076 3076 3076 3075 3075 3075 3075 3075 3075 3075 3075 3075 3074 3073 3072 3070 3070 3069 3069 3069 3068 3067 3067 3066 3065 3064 3063 3062 3062
2996 3000 3004 3007 3009 3012 3015 3017 3020 3024 3026 3028 3030 3032 3034 3036 3038 3041 3044 3046 3048 3050 3052 3053 3055 3057 3059 3060 3062 3063 3065 3066 3067 3068 3070 3072 3073 3074 3075 3076 3077 3077 3078 3078 3077 3077 3077 3077 3076 3076 3075 3074 3074 3073 3073 3073 3073 3072 3072 3072 3072 3072 3072 3072 3072 3072 3072 3072 3071 3070 3068 3068 3067 3067 3066 3066 3066 3065 3064 3063 3063 3062 3060 3059 3059
2993 2996 3000 3003 3006 3010 3013 3015 3016 3019 3022 3025 3027 3029 3031 3033 3035 3037 3040 3042 3045 3047 3048 3050 3052 3055 3056 3058 3059 3060 3061 3062 3064 3066 3067 3069 3069 3071 3072 3073 3073 3074 3075 3074 3074 3073 3073 3073 3073 3072 3072 3071 3070 3070 3069 3069 3069 3069 3069 3069 3069 3069 3068 3068 3068 3068 3069 3068 3068 3067 3066 3065 3065 3064 3064 3064 3063 3062 3061 3061 3060 3059 3058 3057 3057
2988 2991 2994 2998 3001 3005 3008 3011 3013 3015 3018 3020 3023 3025 3027 3030 3032 3034 3036 3038 3041 3043 3045 3047 3049 3051 3053 3054 3055 3056 3058 3060 3061 3063 3064 3065 3066 3067 3068 3069 3070 3071 3071 3071 3071 3070 3070 3070 3070 3069 3069 3068 3067 3066 3066 3066 3066 3065 3065 3065 3065 3065 3065 3065 3065 3065 3065 3065 3064 3064 3063 3063 3062 3062 3061 3061 3060 3059 3059 3058 3057 3057 3056 3055 3054
2985 2987 2990 2994 2997 3001 3004 3007 3009 3011 3013 3016 3018 3020 3023 3026 3029 3031 3032 3034 3036 3039 3041 3043 3045 3047 3049 3050 3052 3053 3055 3057 3058 3059 3060 3061 3063 3064 3065 3067 3067 3068 3068 3068 3068 3068 3068 3068 3067 3066 3066 3065 3064 3063 3063 3063 3062 3062 3062 3062 3062 3062 3062 3062 3062 3062 3062 3062 3061 3061 3060 3060 3059 3059 3059 3058 3058 3057 3056 3055 3054 3054 3053 3053 3052
2981 2983 2986 2989 2992 2995 2999 3002 3005 3007 3009 3011 3013 3016 3018 3021 3024 3027 3030 3031 3033 3035 3037 3039 3041 3043 3045 3047 3048 3050 3051 3052 3054 3056 3058 3059 3060 3062 3063 3064 3064 3065 3065 3065 3065 3065 3065 3064 3064 3063 3062 3062 3061 3061 3060 3060 3059 3059 3059 3059 3059 3058 3058 3059 3059 3059 3059 3059 3058 3058 3058 3057 3057 3057 3056 3056 3055 3055 3054 3053 3052 3051 3050 3050 3049
2976 2979 2981 2983 2986 2989 2993 2997 3001 3003 3005 3007 3009 3011 3014 3016 3019 3022 3026 3028 3029 3031 3033 3035 3037 3040 3041 3043 3045 3047 3048 3050 3052 3054 3055 3057 3058 3059 3060 3061 3061 3061 3062 3062 3062 3062 3062 3061 3061 3060 3059 3059 3059 3058 3058 3057 3056 3056 3056 3056 3056 3056 3056 3056 3056 3056 3056 3056 3056 3056 3055 3055 3055 3054 3054 3053 3053 3052 3051 3050 3049 3048 3048 3047 3046
2970 2972 2975 2978 2982 2984 2987 2992 2996 2998 3001 3004 3006 3009 3011 3014 3016 3018 3020 3023 3024 3026 3028 3031 3034 3036 3038 3040 3042 3044 3046 3048 3050 3051 3053 3054 3055 3056 3056 3057 3058 3058 3058 3058 3059 3059 3058 3058 3057 3057 3056 3056 3056 3056 3055 3054 3054 3053 3053 3052 3052 3052 3052 3052 3052 3052 3052 3053 3053 3053 3052 3052 3052 3052 3051 3051 3050 3049 3049 3048 3047 3046 3045 3044 3043
2964 2967 2971 2975 2977 2980 2983 2987 2991 2994 2998 3001 3004 3006 3008 3011 3013 3015 3017 3019 3021 3023 3025 3028 3031 3033 3035 3037 3039 3042 3043 3045 3047 3048 3050 3051 3052 3053 3054 3054 3054 3054 3055 3055 3055 3055 3055 3054 3054 3053 3053 3053 3053 3053 3052 3052 3051 3050 3050 3049 3049 3049 3049 3049 3049 3049 3049 3049 3049 3049 3049 3049 3049 3048 3048 3048 3047 3046 3045 3045 3044 3043 3042 3042 3041
2961 2965 2968 2971 2973 2976 2980 2984 2987 2990 2994 2998 3000 3002 3005 3008 3011 3013 3015 3018 3020 3022 3024 3026 3028 3030 3032 3034 3037 3039 3040 3042 3044 3045 3047 3048 3049 3050 3050 3051 3051 3051 3051 3051 3051 3051 3051 3051 3050 3049 3049 3049 3049 3049 3049 3048 3048 3048 3047 3046 3046 3046 3046 3046 3046 3046 3046 3046 3046 3046 3046 3046 3045 3045 3045 3044 3043 3043 3042 3042 3041 3040 3039 3039 3038
2960 2963 2965 2967 2970 2973 2977 2981 2984 2987 2991 2994 2997 2999 3003 3006 3009 3011 3014 3016 3019 3021 3022 3024 3025 3027 3029 3031 3034 3036 3037 3039 3041 3042 3043 3044 3045 3046 3047 3047 3048 3048 3048 3048 3048 3048 3047 3047 3046 3046 3045 3045 3045 3045 3045 3044 3045 3045 3044 3044 3043 3043 3043 3043 3043 3043 3043 3043 3043 3043 3043 3042 3042 3042 3041 3041 3040 3039 3039 3038 3038 3037 3036 3035 3035
2959 2960 2962 2965 2968 2971 2975 2978 2981 2985 2989 2992 2995 2999 3003 3006 3008 3011 3014 3015 3017 3018 3020 3021 3023 3025 3027 3029 3031 3033 3035 3036 3037 3038 3039 3040 3041 3042 3043 3044 3044 3044 3044 3044 3044 3044 3043 3043 3042 3042 3042 3041 3041 3041 3041 3041 3041 3041 3041 3041 3041 3040 3040 3040 3040 3040 3040 3040 3041 3041 3040 3040 3039 3039 3038 3037 3037 3036 3036 3035 3034 3034 3033 3032 3032
2955 2958 2962 2966 2968 2971 2974 2976 2979 2983 2987 2990 2994 2998 3002 3004 3007 3010 3012 3013 3015 3017 3018 3020 3022 3023 3025 3027 3029 3031 3032 3033 3034 3035 3036 3037 3038 3038 3039 3039 3039 3040 3039 3040 3040 3040 3040 3039 3039 3038 3038 3037 3037 3037 3037 3037 3038 3038 3038 3038 3038 3037 3037 3037 3037 3037 3038 3038 3038 3037 3037 3037 3036 3035 3034 3034 3034 3033 3033 3032 3031 3030 3030 3029 3028
2954 2957 2961 2965 2967 2970 2973 2976 2978 2981 2985 2988 2992 2996 2999 3002 3005 3007 3010 3011 3013 3015 3017 3019 3020 3022 3023 3025 3027 3028 3030 3031 3032 3032 3033 3033 3034 3034 3034 3035 3035 3035 3035 3035 3035 3036 3036 3035 3035 3034 3034 3034 3033 3033 3034 3034 3034 3035 3035 3035 3035 3035 3034 3034 3034 3034 3035 3034 3034 3034 3033 3033 3032 3031 3031 3031 3030 3030 3029 3028 3027 3027 3026 3025 3025
2953 2956 2959 2962 2965 2969 2972 2975 2978 2981 2984 2988 2992 2995 2997 3000 3003 3006 3008 3010 3012 3013 3015 3017 3018 3020 3022 3023 3025 3026 3027 3028 3028 3029 3029 3029 3030 3030 3030 3031 3031 3031 3031 3031 3031 3032 3032 3031 3031 3031 3030 3030 3030 3030 3030 3031 3031 3031 3032 3032 3032 3032 3032 3032 3031 3031 3031 3031 3031 3030 3030 3029 3029 3028 3028 3027 3027 3027 3026 3025 3024 3024 3023 3022 3022
2953 2956 2959 2962 2964 2967 2971 2974 2978 2981 2984 2987 2991 2993 2995 2998 3001 3004 3006 3008 3010 3012 3013 3015 3016 3018 3020 3021 3022 3023 3024 3024 3025 3025 3025 3026 3026 3027 3027 3027 3027 3027 3027 3027 3028 3028 3028 3027 3027 3027 3027 3026 3026 3026 3026 3027 3027 3028 3028 3029 3029 3029 3028 3028 3028 3028 3028 3028 3027 3027 3026 3026 3025 3025 3025 3024 3024 3023 3023 3022 3021 3021 3020 3020 3020
2953 2956 2959 2962 2965 2968 2971 2975 2978 2981 2984 2987 2990 2992 2994 2996 2999 3002 3004 3006 3008 3010 3011 3013 3014 3016 3017 3018 3019 3020 3020 3021 3021 3021 3022 3022 3023 3024 3024 3024 3024 3024 3024 3024 3024 3024 3024 3024 3024 3023 3023 3022 3022 3022 3023 3023 3024 3025 3025 3026 3025 3025 3025 3025 3025 3024 3024 3024 3024 3023 3023 3022 3022 3022 3022 3021 3021 3020 3020 3019 3018 3018 3017 3017 3017
2954 2957 2960 2963 2966 2970 2973 2976 2979 2981 2984 2986 2989 2991 2993 2996 2998 3000 3003 3005 3006 3008 3009 3011 3012 3014 3015 3016 3016 3017 3017 3017 3018 3018 3019 3020 3020 3020 3021 3021 3021 3021 3021 3021 3021 3021 3021 3020 3020 3020 3020 3019 3019 3019 3020 3021 3022 3022 3022 3022 3022 3022 3022 3021 3021 3021 3020 3020 3020 3020 3019 3019 3019 3019 3018 3018 3017 3017 3016 3016 3015 3015 3015 3014 3014
2957 2960 2963 2965 2968 2971 2974 2976 2979 2981 2984 2986 2989 2991 2993 2995 2997 2999 3001 3003 3004 3006 3007 3009 3010 3011 3012 3013 3013 3014 3014 3015 3015 3016 3016 3016 3017 3017 3017 3017 3017 3017 3017 3017 3017 3017 3017 3017 3017 3017 3017 3017 3017 3017 3018 3018 3019 3019 3019 3019 3019 3018 3018 3018 3017 3017 3017 3017 3016 3016 3016 3015 3015 3015 3015 3014 3014 3014 3013 3013 3013 3012 3012 3012 3011
2959 2962 2965 2967 2970 2972 2974 2976 2978 2981 2984 2986 2988 2990 2992 2994 2996 2997 2999 3000 3002 3003 3005 3006 3008 3008 3009 3010 3011 3011 3011 3012 3012 3012 3013 3013 3013 3013 3013 3013 3013 3013 3014 3014 3014 3014 3014 3014 3014 3014 3014 3015 3015 3015 3016 3016 3016 3016 3016 3016 3016 3015 3015 3014 3014 3014 3014 3013 3013 3012 3012 3012 3012 3011 3011 3011 3010 3010 3010 3010 3010 3009 3009 3009 3008
2961 2963 2966 2968 2971 2973 2975 2977 2979 2981 2983 2985 2986 2988 2990 2992 2994 2995 2997 2998 3000 3001 3002 3004 3005 3006 3007 3007 3008 3008 3008 3009 3009 3009 3009 3009 3009 3009 3009 3010 3010 3010 3010 3011 3011 3011 3011 3011 3011 3012 3012 3012 3013 3013 3013 3013 3013 3013 3013 3013 3012 3012 3011 3011 3011 3010 3010 3010 3009 3009 3009 3009 3008 3008 3008 3007 3007 3007 3007 3007 3006 3006 3006 3006 3005
2963 2964 2967 2969 2971 2973 2975 2977 2979 2981 2982 2984 2986 2987 2989 2990 2992 2993 2995 2996 2997 2999 3000 3001 3003 3003 3004 3004 3005 3005 3005 3005 3005 3005 3005 3006 3006 3006 3006 3006 3007 3007 3007 3007 3008 3008 3008 3009 3009 3010 3010 3010 3010 3011 3011 3011 3011 3010 3010 3010 3009 3009 3008 3008 3008 3007 3007 3006 3006 3006 3005 3005 3005 3004 3004 3004 3004 3004 3004 3004 3003 3003 3003 3003 3003
2964 2965 2967 2969 2971 2974 2975 2977 2979 2980 2982 2983 2984 2986 2987 2989 2990 2991 2993 2994 2995 2996 2998 2999 2999 3000 3001 3001 3002 3002 3002 3002 3002 3002 3002 3003 3003 3003 3003 3003 3004 3004 3004 3004 3005 3006 3006 3007 3007 3008 3008 3008 3008 3008 3008 3008 3008 3008 3007 3007 3006 3006 3006 3005 3005 3004 3004 3003 3003 3002 3002 3002 3001 3001 3001 3001 3001 3001 3001 3001 3000 3000 3000 3000 3000
2964 2966 2967 2969 2971 2973 2975 2976 2978 2979 2981 2982 2983 2985 2986 2987 2988 2989 2991 2992 2993 2994 2995 2996 2996 2997 2998 2998 2999 2999 2999 2999 3000 3000 3000 3000 3000 3000 3000 3000 3001 3001 3001 3002 3003 3004 3004 3005 3005 3005 3005 3006 3006 3006 3006 3006 3005 3005 3005 3004 3004 3003 3003 3002 3002 3001 3001 3000 3000 2999 2999 2999 2998 2998 2998 2998 2998 2998 2998 2998 2998 2998 2998 2997 2997
2964 2966 2967 2969 2970 2972 2974 2975 2977 2978 2979 2980 2981 2983 2984 2985 2986 2987 2988 2989 2990 2991 2992 2993 2994 2994 2995 2995 2996 2996 2996 2997 2997 2997 2997 2997 2997 2997 2997 2998 2998 2999 2999 3000 3001 3002 3002 3003 3003 3003 3003 3003 3003 3003 3003 3003 3003 3002 3002 3002 3001 3001 3000 2999 2999 2998 2998 2998 2997 2997 2996 2996 2996 2996 2995 2995 2995 2995 2995 2995 2995 2995 2995 2995 2995
2964 2966 2967 2968 2970 2972 2973 2974 2976 2977 2978 2979 2979 2980 2981 2982 2983 2984 2985 2986 2987 2988 2989 2990 2991 2992 2992 2993 2993 2993 2993 2993 2993 2994 2994 2994 2994 2995 2995 2996 2996 2997 2997 2998 2998 2999 3000 3000 3000 3001 3001 3001 3001 3001 3000 3000 3000 3000 2999 2999 2999 2998 2998 2997 2997 2996 2996 2995 2995 2994 2994 2994 2993 2993 2993 2993 2993 2993 2993 2993 2993 2992 2992 2992 2992